Etusivu
METAR-TAF:

METAR-TAF

Lentoasemat :

Bay City, Texas, Yhdysvallat

Leveyspiiri: 28-58-23N, Pituuspiiri: 095-51-48W, korkeus merenpinnasta: 14 m

Tämänhetkinen sää

Tämä raportti tehtiin 17 minuuttia sitten, kello 01.35 UTC
Tuuli 4 kn kaakosta
Lämpötila 27°C
Kosteus 79%
Ilmanpaine 1013 hPa
Näkyvyys: 16.1 km
selkeää

METAR: KBYY 060135Z AUTO 14004KT 10SM CLR 27/23 A2990 RMK AO2 T02820235

Aika: 20:52 (01:52 UTC)


TAF: puuttuu

Säähavainnot ja -ennusteet yli 4000 lentoasemalta (METAR- ja TAF-raportit).

Käytössä olevat sääasemat on merkitty karttaan keltaisilla ja punaisilla pisteillä.

Aseta hiiri pisteen päälle nähdäksesi sääaseman nimen.

Klikkaa sitten nähdäksesi säähavainnot ja -ennusteet.

Kartan vaihtaminen: klikkaa mustalla rastilla varustettuja vihreitä pisteitä, niin voit zoomata sisään; viivalla varustettua vihreää pistettä, niin voit zoomata ulos tai vihreitä nuolia, niin pääset viereisille kartoille.


METAR-TAF: